Location: *
(45.9500°N, 9.0833°E)
Time: 18:33:20
(UTC+00:00)

Cosmos 1992 Rocket - Pass Details

Date: 03 March 2021
Orbit: 759 x 765 km, 74.0° (Epoch: 15 April)

Event Time Altitude Azimuth Distance (km) Brightness Sun altitude
Rises 17:47:00 0° 183° (S) 3,216 7.3 -6.7°
Reaches altitude 10° 17:49:26 10° 177° (S) 2,294 6.5 -7.1°
Maximum altitude 17:54:24 47° 105° (ESE) 1,005 4.2 -8.0°
Drops below altitude 10° 17:59:24 10° 32° (NNE) 2,307 6.2 -8.8°
Sets 18:01:50 0° 27° (NNE) 3,237 7.0 -9.3°
